Weather History for Grafton, ND

Change the Weather History Date:

Saturday, January 19, 2013

  Actual Average Record
Temperature  
Mean Temperature 4 °F -  
Max Temperature 15 °F 16 °F 38 °F (1968)
Min Temperature -7 °F -3 °F -32 °F (1970)
Degree Days  
Heating Degree Days 61    
Moisture  
Dew Point -2 °F    
Average Humidity 80    
Maximum Humidity 93    
Minimum Humidity 65    
Precipitation  
Precipitation 0.00 in - - ()
Sea Level Pressure  
Sea Level Pressure 30.03 in    
Wind  
Wind Speed 13 mph (NW)    
Max Wind Speed 32 mph    
Max Gust Speed 44 mph    
Visibility 7 miles    
Events Rain , Snow    
Averages and records for this station are not official NWS values.
T = Trace of Precipitation, MM = Missing Value Source: NWS Daily Summary

Daily Weather History Graph

Daily Weather History Graph

Search for Another Location

Airport:

Trip Planner

Search our weather history database for the weather conditions in past years. The results will help you decide how hot, cold, wet, or windy it might be!

Date:

Astronomy

Jan. 19, 2013 Rise Set
Actual Time 8:12 AM CST 5:08 PM CST
Civil Twilight 7:37 AM CST 5:43 PM CST
Nautical Twilight 6:58 AM CST 6:22 PM CST
Astronomical Twilight 6:21 AM CST 6:59 PM CST
Moon 11:41 AM CST (1/19) 1:40 AM CST (1/19)
Length of Visible Light 10h 06m
Length of Day
8h 56m
First Quarter, 57% of the Moon is Illuminated
Jan 19
First Quarter
Jan 26
Full
Feb 3
Last Quarter
Feb 10
New
Feb 17
First Quarter

Hourly Weather History & Observations

Time (CST) Temp. Windchill Dew Point Humidity Pressure Visibility Wind Dir Wind Speed Gust Speed Precip Events Conditions
12:15 AM 14.0 °F 8.2 °F 10.4 °F 86% 29.70 in 10.0 mi South 3.5 mph - N/A   Overcast
12:35 AM 14.0 °F 8.2 °F 10.4 °F 86% 29.69 in 10.0 mi SSW 3.5 mph - N/A   Overcast
12:55 AM 14.0 °F 3.9 °F 10.4 °F 86% 29.67 in 10.0 mi South 6.9 mph - N/A   Mostly Cloudy
1:15 AM 10.4 °F 0.8 °F 8.6 °F 92% 29.66 in 10.0 mi South 5.8 mph - N/A   Partly Cloudy
1:35 AM 8.6 °F -3.7 °F 6.8 °F 92% 29.65 in 10.0 mi South 8.1 mph - N/A   Clear
1:55 AM 10.4 °F 0.8 °F 8.6 °F 92% 29.64 in 8.0 mi South 5.8 mph - N/A   Scattered Clouds
2:15 AM 10.4 °F 2.2 °F 8.6 °F 92% 29.64 in 8.0 mi South 4.6 mph - N/A   Scattered Clouds
2:35 AM 8.6 °F 0.1 °F 6.8 °F 92% 29.65 in 10.0 mi South 4.6 mph - N/A   Clear
2:55 AM 8.6 °F -3.7 °F 6.8 °F 92% 29.64 in 10.0 mi South 8.1 mph - N/A   Clear
3:15 AM 6.8 °F -3.5 °F 5.0 °F 92% 29.63 in 10.0 mi SSW 5.8 mph - N/A   Clear
3:35 AM 6.8 °F -2.0 °F 5.0 °F 92% 29.63 in 10.0 mi SE 4.6 mph - N/A   Clear
3:55 AM 6.8 °F -2.0 °F 5.0 °F 92% 29.63 in 10.0 mi SE 4.6 mph - N/A   Clear
4:15 AM 5.0 °F - 1.4 °F 85% 29.65 in 10.0 mi Calm Calm - N/A   Scattered Clouds
4:35 AM 8.6 °F - 6.8 °F 92% 29.65 in 10.0 mi Calm Calm - N/A   Overcast
4:55 AM 8.6 °F - 6.8 °F 92% 29.65 in 10.0 mi Calm Calm - N/A   Mostly Cloudy
5:15 AM 10.4 °F 4.0 °F 8.6 °F 92% 29.66 in 10.0 mi WNW 3.5 mph - N/A   Overcast
5:35 AM 12.2 °F 1.7 °F 10.4 °F 92% 29.68 in 10.0 mi NW 6.9 mph - N/A   Overcast
5:55 AM 15.8 °F 0.9 °F 14.0 °F 93% 29.70 in 10.0 mi NNW 15.0 mph - N/A   Overcast
7:15 AM 10.4 °F -9.1 °F 6.8 °F 85% 29.78 in 7.0 mi NNW 21.9 mph 29.9 mph N/A Snow Light Snow
8:15 AM 8.6 °F -11.4 °F 3.2 °F 79% 29.84 in 1.8 mi NNW 21.9 mph 36.8 mph N/A Snow Light Snow
8:35 AM 6.8 °F -14.7 °F 1.4 °F 79% 29.85 in 5.0 mi NNW 24.2 mph 32.2 mph N/A   Haze
9:55 AM 6.8 °F -15.5 °F 1.4 °F 79% 29.92 in 2.0 mi NNW 26.5 mph 33.4 mph N/A Rain Light Freezing Rain
10:15 AM 5.0 °F -17.1 °F -0.4 °F 78% 29.95 in 1.2 mi NNW 24.2 mph 38.0 mph N/A Rain Light Freezing Rain
10:35 AM 5.0 °F -16.7 °F -0.4 °F 78% 29.96 in 1.2 mi NNW 23.0 mph 40.3 mph N/A Rain Light Freezing Rain
10:55 AM 3.2 °F -19.9 °F -0.4 °F 85% 29.98 in 1.2 mi NNW 25.3 mph 33.4 mph N/A Rain Light Freezing Rain
11:15 AM 3.2 °F -20.3 °F -2.2 °F 78% 29.99 in 0.8 mi NNW 26.5 mph 38.0 mph N/A Rain Light Freezing Rain
11:35 AM 1.4 °F -24.3 °F -2.2 °F 85% 30.01 in 0.8 mi NNW 31.1 mph 38.0 mph N/A Rain Light Freezing Rain
11:55 AM 1.4 °F -23.9 °F -4.0 °F 78% 30.01 in 0.8 mi NNW 29.9 mph 40.3 mph N/A Rain Light Freezing Rain
12:15 PM 1.4 °F -22.7 °F -4.0 °F 78% 30.02 in 1.0 mi NNW 26.5 mph 41.4 mph N/A Rain Light Freezing Rain
12:35 PM 1.4 °F -24.3 °F -4.0 °F 78% 30.03 in 0.8 mi NNW 31.1 mph 40.3 mph N/A Rain Light Freezing Rain
12:55 PM 1.4 °F -21.9 °F -4.0 °F 78% 30.04 in 0.8 mi NNW 24.2 mph 39.1 mph N/A Rain Light Freezing Rain
1:15 PM 1.4 °F -23.9 °F -4.0 °F 78% 30.06 in 0.8 mi NNW 29.9 mph 41.4 mph N/A Rain Light Freezing Rain
1:35 PM 1.4 °F -23.9 °F -4.0 °F 78% 30.07 in 1.0 mi NNW 29.9 mph 43.7 mph N/A Rain Light Freezing Rain
1:55 PM 1.4 °F -23.2 °F -4.0 °F 78% 30.09 in 1.2 mi NNW 27.6 mph 36.8 mph N/A   Haze
2:15 PM 1.4 °F -23.2 °F -2.2 °F 85% 30.11 in 1.2 mi NNW 27.6 mph 36.8 mph N/A   Overcast
2:35 PM -0.4 °F -27.1 °F -4.0 °F 85% 30.13 in 1.2 mi NNW 32.2 mph 39.1 mph N/A   Haze
2:55 PM -0.4 °F -26.4 °F -4.0 °F 85% 30.14 in 0.8 mi NNW 29.9 mph 42.6 mph N/A Rain Light Freezing Rain
3:15 PM -0.4 °F -26.0 °F -4.0 °F 85% 30.17 in 2.0 mi NNW 28.8 mph 41.4 mph N/A   Haze
3:35 PM -0.4 °F -25.6 °F -5.8 °F 78% 30.19 in 2.5 mi NNW 27.6 mph 36.8 mph N/A   Haze
3:55 PM -0.4 °F -26.4 °F -5.8 °F 78% 30.21 in 5.0 mi NNW 29.9 mph 36.8 mph N/A   Haze
4:15 PM -0.4 °F -25.2 °F -7.6 °F 72% 30.23 in 3.0 mi NNW 26.5 mph 40.3 mph N/A   Haze
4:35 PM -0.4 °F -24.3 °F -5.8 °F 78% 30.25 in 8.0 mi NNW 24.2 mph 32.2 mph N/A   Overcast
4:55 PM -0.4 °F -23.3 °F -7.6 °F 72% 30.26 in 8.0 mi NNW 21.9 mph 32.2 mph N/A   Mostly Cloudy
5:15 PM -0.4 °F -21.7 °F -7.6 °F 72% 30.27 in 3.0 mi NNW 18.4 mph 35.7 mph N/A   Haze
5:35 PM -2.2 °F -26.2 °F -9.4 °F 71% 30.29 in 8.0 mi NNW 23.0 mph 31.1 mph N/A   Partly Cloudy
5:55 PM -2.2 °F -22.9 °F -9.4 °F 71% 30.31 in 10.0 mi NW 16.1 mph 20.7 mph N/A   Clear
6:15 PM -2.2 °F -22.9 °F -9.4 °F 71% 30.31 in 10.0 mi NNW 16.1 mph 24.2 mph N/A   Clear
6:35 PM -2.2 °F -23.5 °F -9.4 °F 71% 30.32 in 10.0 mi NW 17.3 mph - N/A   Clear
6:55 PM -2.2 °F -23.5 °F -11.2 °F 66% 30.32 in 10.0 mi NW 17.3 mph - N/A   Clear
7:15 PM -2.2 °F -20.7 °F -11.2 °F 66% 30.33 in 10.0 mi NNW 12.7 mph - N/A   Clear
7:35 PM -4.0 °F -24.5 °F -11.2 °F 71% 30.33 in 10.0 mi NNW 15.0 mph 20.7 mph N/A   Clear
7:55 PM -4.0 °F -24.5 °F -11.2 °F 71% 30.34 in 10.0 mi NNW 15.0 mph - N/A   Clear
8:15 PM -4.0 °F -24.5 °F -11.2 °F 71% 30.33 in 10.0 mi NNW 15.0 mph 19.6 mph N/A   Clear
8:35 PM -2.2 °F -21.5 °F - N/A% 30.34 in 10.0 mi NNW 13.8 mph - N/A   Clear
8:55 PM -4.0 °F -23.0 °F -11.2 °F 71% 30.34 in 10.0 mi NNW 12.7 mph 18.4 mph N/A   Clear
9:15 PM -4.0 °F -21.2 °F -13.0 °F 65% 30.35 in 10.0 mi NNW 10.4 mph 17.3 mph N/A   Clear
9:35 PM -4.0 °F -20.2 °F -13.0 °F 65% 30.36 in 10.0 mi NNW 9.2 mph - N/A   Clear
9:55 PM -4.0 °F -20.2 °F -13.0 °F 65% 30.35 in 10.0 mi NNW 9.2 mph - N/A   Clear
10:15 PM -5.8 °F -22.4 °F -13.0 °F 71% 30.36 in 10.0 mi NW 9.2 mph - N/A   Clear
10:35 PM -5.8 °F -22.4 °F -13.0 °F 71% 30.37 in 10.0 mi NW 9.2 mph - N/A   Clear
10:55 PM -5.8 °F -22.4 °F -13.0 °F 71% 30.36 in 10.0 mi NNW 9.2 mph - N/A   Clear
11:15 PM -7.6 °F -24.6 °F -13.0 °F 77% 30.35 in 10.0 mi NW 9.2 mph - N/A   Clear
11:35 PM -5.8 °F -18.4 °F -13.0 °F 71% 30.36 in 10.0 mi WNW 5.8 mph - N/A   Clear
11:55 PM -7.6 °F -20.6 °F -13.0 °F 77% 30.36 in 10.0 mi West 5.8 mph - N/A   Clear